weather.gov     
National Weather Service

Regional Weather Roundup
NWS Homepage
This page is being discontinued on March 12, 2014.
The same data is available at this site. Please update your bookmarks.
Thank you, and we apologize for the inconvenience.
Please send an email to SR-SRH.Webmaster@noaa.gov with any concerns.


Current Version
Previous Version:    01  02  03  04  05  06  07  08  09  10  11  12  13  14  15  16  17  18  19  20  21  22  23  24  25  26  27  
[Printable]
596
ASUS46 KPQR 280810
RWROR

OREGON REGIONAL WEATHER ROUNDUP
NATIONAL WEATHER SERVICE PORTLAND OR
100 AM PDT MON JUL 28 2014

NOTE: "FAIR" INDICATES FEW OR NO CLOUDS BELOW 12,000 FEET WITH
NO SIGNIFICANT WEATHER AND/OR OBSTRUCTIONS TO VISIBILITY.

ORZ001>013-280900-
NORTHWEST OREGON


CITY           SKY/WX    TMP DP  RH WIND       PRES   REMARKS
ASTORIA        CLEAR     56  54  93 S5        30.11S
NEWPORT        CLEAR     52  52 100 CALM      30.11F
PORTLAND       CLEAR     71  56  58 NW5       30.05R
VANCOUVER WA   CLEAR     71  54  54 N3        30.04R
SCAPPOOSE      CLEAR     71  53  52 NW7       30.04S
HILLSBORO      CLEAR     68  55  63 W10       30.05S
AURORA         CLEAR     68  57  68 CALM      30.06R
MCMINNVILLE    CLEAR     64  58  80 W5        30.05S
SALEM          CLEAR     69  57  65 N5        30.04R
CORVALLIS      CLEAR     64  57  77 NW10      30.05S
EUGENE         CLEAR     65  57  75 CALM      30.05R
$$

ORZ021-028-280900-
SOUTHWEST OREGON


CITY           SKY/WX    TMP DP  RH WIND       PRES   REMARKS
NORTH BEND     CLOUDY    57  55  94 N9        30.09S
BROOKINGS      SUNNY     59  56  89 CALM      30.01S
ROSEBURG       CLEAR     69  52  54 CALM      30.04R
SEXTON SUMMIT  CLEAR     64  49  57 N13       30.17S
MEDFORD        CLEAR     76  52  43 CALM      30.03R
$$

ORZ009-041-280900-
COLUMBIA GORGE


CITY           SKY/WX    TMP DP  RH WIND       PRES   REMARKS
TROUTDALE      CLEAR     69  56  62 CALM      30.03S
THE DALLES     PTCLDY    75  61  61 NW13      29.99R
$$

ORZ029>031-042>050-061>064-280900-
EASTERN OREGON


CITY           SKY/WX    TMP DP  RH WIND       PRES   REMARKS
REDMOND        PTCLDY    62  40  44 S6        30.14R
BEND           MOSUNNY   63  45  51 S7        30.18S
KLAMATH FALLS  CLEAR     55  47  74 E3        30.19R
LAKEVIEW       MOCLDY    66  36  32 NW10      30.24S
HERMISTON      CLOUDY    77  41  27 NW3       29.99R
PENDLETON      MOCLDY    74  41  30 E6        30.03R
JOHN DAY       PTSUNNY   75  39  27 W5        30.18S
MEACHAM        MOCLDY    58  47  66 CALM      30.19R
LA GRANDE      PTCLDY    75  37  25 N13       30.09S
BAKER CITY     PTCLDY    61  45  55 SE5       30.13S
BURNS          CLOUDY    78  36  21 NW16G26   30.15F
ROME             N/A     71  26  18 S10       30.11R
ONTARIO        CLEAR     82  42  24 NW13      29.98F
$$




U.S. Dept. of Commerce
NOAA National Weather Service
1325 East West Highway
Silver Spring, MD 20910
E-mail: w-nws.webmaster@noaa.gov
Page last modified: May 16, 2007
NATIONAL WEATHER SERVICE: for Safety, for Work, for Fun - FOR LIFE